Aérodrome :







RETROUVEZ-NOUS SUR...

 
LOGIN :

S'inscrire | Disclaimer

   EN    FR    IT 

 









Légende :    VFR   VFR Marginal   IFR   IFR Intensif   IFR Très Intensif
Visi : 
Plafond : 
>= 8 km
>= 3000ft
5 à 8 km
1000 à 3000 ft
1500m à 5 km
500 à 1000 ft
800 à 1500m
200 à 500 ft
< 800m
< 200 ft
Symboles :   Orages  Brouillard  Fortes neiges  Fortes précipitations  Vent > 20 kt






- Altitude de l'aérodrome : 41 ft
- Code IATA : GND


TGPY - Point Salines

DERNIER METAR :
  • 031900Z 00000KT 9999 -SHRA BKN018 27/24 Q1011 NOSIG

METARs EXPIRÉS :
  • 031800Z 07005KT 9999 SCT018 SCT035 28/24 Q1012 NOSIG
  • 031700Z 00000KT 9999 SCT018 BKN035 28/23 Q1012 NOSIG

TAF TGPY
Valide du 03 à 18h jusqu'au 04 à 18h UTC


031600Z 0318/0418 08008KT 9999 SCT018
FIR TTZP / Amérique du Nord



MET'MAP, la Météo Aéronautique d'un coup d'oeil ! - Copyright ORBIFLY Décembre 2007 - Disclaimer

ORBIFLY MET'MAP TEAM :

Programmation & Développement : Alexandra Zaïnal
Sur une idée originale de : Baudouin d'Aumeries
Assistance à la programmation : Marc-Olivier Méhu
Soutien technique & logistique : Manuel Goepfert

Contact : metmap@orbifly.com




SOURCES & CREDITS :

   NOAA